SL-12 DEB, 41692

Orbit data source: Space-Track

SL-12 DEB, 41692 is space debris in HEO originally from a launch on Fri, 26 Oct 2007 UTC launched from the Tyuratam Missile And Space Complex (TTMTR). Debris objects in space refer to the collection of defunct objects orbiting the Earth. Examples of debris include non-operational satellites, rocket bodies, and fragments generated from explosions, collisions, or faulty payload assembly.

Loading next visibility...
Identifier
41692, 2007-052Z
Orbit
HEO
Country
Flag of CISCIS
Related business
Manufacturer
RKKE
Mission
Spacecraft
Bus & Motor
Unknown
Mass
Unknown
Launch date (UTC)
2007-10-26 (18 years ago)
Launch vehicle
Unknown
Launch site
Tyuratam Missile And Space Complex (TTMTR)
Object type
Payload
Rocket body
Debris
Shape & HBR
Unknown shape, 0.6 m
Radar Cross Section
Small (<0.1 m²)

Expand to show TLE details & history
Last TLE update: 1 week ago

TLE from 1 week ago
0 SL-12 DEB
1 41692U 07052Z   25281.37128351  .00000892  00000-0  21103-2 0  9992
2 41692  65.5161 316.7776 5613389 253.7654  40.2124  4.41731160 76678
Epoch: 2025-10-08T08:54Z
TLE epoch observation values (Epoch: 2025-10-08T08:54:38.895Z)
Latitude
-0.00009°
Longitude
165.88661°
Altitude
6,382.66 km
Speed
6.089 km/s
True Right ascension
21h 07m 10s
True Declination
0° 00' 00"
Sunlit
Object was in daylight at epoch
Visualization orbit readout
Latitude
Unknown
Longitude
Unknown
Altitude
Unknown
Speed
Unknown
Apparent Right ascension
Unknown
Apparent Declination
Unknown
Sunlit
N/A
Visualization observer readout
Local Sidereal Time
16:22:51
Azimuth
Unknown
Elevation
Unknown
Doppler factor
Unknown
Orbital elements
Apogee altitude
18,117.799 km
Perigee altitude
504.042 km
Semi-major axis
15,689.058 km
Eccentricity
0.56134
Inclination
65.5161°
RAAN
316.7776°
Arg. of periapsis
253.7654°
True anomaly
106.2976°
Mean anomaly
40.2124°
Eccentric anomaly
70.53687°
Mean motion
1.10445 °/min
Orbital period
325.95 mins
BSTAR
0.0021103
Loading maneuver chart data...
Computing Atmospheric mass density...
Loading historical data...
Loading historical data...
Loading historical data...
Loading historical data...
Loading historical data...
Loading historical data...
Loading historical data...

Documentation

Showing up to 5 results
|